M I D A S
Marine Information and Data Acquisition System
Tripno 1126 of the Zeeleeuw from 2006-06-07 04:01:00 to 2006-06-07 13:57:39
Back to CruiseResearch ActivitiesStationsMapUnderway DataData graphs

EquipmentUnitsComments
TimeDGPSUTC
LatitudeDGPSDM.mWGS84
LongitudeDGPSDM.mWGS84
SpeedMeteo Stationm/sRelative wind speed
DirectionMeteo StationdegRelative wind direction
TemperatureMeteo Stationdeg CelciusAir temperature
PressureMeteo StationPaAtmospheric pressure
HumidityMeteo Station%Relative humidity
Missing or incorrect values are displayed as -999
Metereological data collected by the RV Zeeleeuw from 2006-06-07 04:00:49 to 2006-06-07 14:08:24
Time Latitude Longitude Speed Direction Temperature Pressure Humidity
2006-06-07 04:01 51°13.622 2°56.019 -999 166 9 102850 92
2006-06-07 04:02 51°13.65 2°55.902 -999 169 9 102850 92
2006-06-07 04:03 51°13.687 2°55.781 -999 176 9 102850 92
2006-06-07 04:04 51°13.702 2°55.726 -999 145 9.1 102840 92
2006-06-07 04:05 51°13.713 2°55.746 -999 166 9 102840 91
2006-06-07 04:06 51°13.721 2°55.737 -999 -999 9.1 102840 91
2006-06-07 04:07 51°13.799 2°55.666 -999 2 9.2 102840 91
2006-06-07 04:08 51°13.939 2°55.553 -999 8 9.3 102840 90
2006-06-07 04:09 51°14.086 2°55.453 -999 10 9.4 102840 90
2006-06-07 04:10 51°14.226 2°55.326 -999 2 9.5 102840 89
2006-06-07 04:11 51°14.341 2°55.115 -999 1 9.6 102840 89
2006-06-07 04:12 51°14.477 2°54.884 -999 359 9.8 102840 88
2006-06-07 04:13 51°14.621 2°54.637 -999 354 10 102830 88
2006-06-07 04:14 51°14.759 2°54.365 -999 349 10.2 102830 87
2006-06-07 04:15 51°14.908 2°54.126 -999 353 10.2 102830 86
2006-06-07 04:16 51°15.052 2°53.879 -999 348 10.3 102830 85
2006-06-07 04:17 51°15.188 2°53.61 -999 356 10.4 102830 85
2006-06-07 04:18 51°15.296 2°53.304 -999 350 10.5 102830 85
2006-06-07 04:19 51°15.392 2°52.976 -999 351 10.6 102830 84
2006-06-07 04:20 51°15.406 2°52.625 -999 349 10.6 102830 84
2006-06-07 04:21 51°15.43 2°52.262 -999 357 10.7 102830 84
2006-06-07 04:22 51°15.463 2°51.902 -999 349 10.7 102830 84
2006-06-07 04:23 51°15.494 2°51.535 -999 348 10.8 102820 84
2006-06-07 04:24 51°15.535 2°51.172 -999 350 10.8 102820 84
2006-06-07 04:25 51°15.574 2°50.825 -999 350 10.9 102820 84
2006-06-07 04:26 51°15.616 2°50.465 -999 352 10.8 102830 84
2006-06-07 04:27 51°15.658 2°50.101 -999 348 10.9 102820 84
2006-06-07 04:28 51°15.696 2°49.753 -999 350 11 102820 84
2006-06-07 04:29 51°15.734 2°49.391 -999 352 11 102820 84
2006-06-07 04:30 51°15.778 2°49.058 -999 6 11 102810 84
2006-06-07 04:31 51°15.82 2°48.694 -999 2 11 102840 83
2006-06-07 04:32 51°15.869 2°48.347 -999 357 11 102840 83
2006-06-07 04:33 51°15.924 2°47.994 -999 359 11.1 102830 82
2006-06-07 04:34 51°15.997 2°47.656 -999 7 11.1 102830 82
2006-06-07 04:35 51°16.067 2°47.313 -999 359 11.1 102840 81
2006-06-07 04:36 51°16.141 2°46.981 -999 5 11.1 102830 81
2006-06-07 04:37 51°16.211 2°46.638 -999 3 11.1 102830 80
2006-06-07 04:38 51°16.276 2°46.309 -999 3 11.1 102840 80
2006-06-07 04:39 51°16.344 2°45.996 -999 8 11.1 102830 79
2006-06-07 04:40 51°16.434 2°45.671 -999 359 11.1 102830 79
2006-06-07 04:41 51°16.512 2°45.361 -999 3 11.2 102840 79
2006-06-07 04:42 51°16.59 2°45.036 -999 7 11.1 102840 78
2006-06-07 04:43 51°16.685 2°44.726 -999 358 11.1 102830 78
2006-06-07 04:44 51°16.782 2°44.412 -999 358 11.2 102830 78
2006-06-07 04:45 51°16.88 2°44.08 -999 359 11.2 102840 78
2006-06-07 04:46 51°16.982 2°43.764 -999 358 11.2 102830 78
2006-06-07 04:47 51°17.096 2°43.463 -999 8 11.2 102840 78
2006-06-07 04:48 51°17.203 2°43.168 -999 12 11.2 102840 78
2006-06-07 04:49 51°17.322 2°42.863 -999 10 11.2 102830 79
2006-06-07 04:50 51°17.45 2°42.576 -999 6 11.2 102830 79
2006-06-07 04:51 51°17.573 2°42.293 -999 12 11.1 102830 79
2006-06-07 04:52 51°17.704 2°42.005 -999 11 11.1 102830 79
2006-06-07 04:53 51°17.839 2°41.707 -999 13 11 102840 79
2006-06-07 04:54 51°17.971 2°41.421 -999 8 11 102830 80
2006-06-07 04:55 51°18.099 2°41.14 -999 10 11 102830 80
2006-06-07 04:56 51°18.225 2°40.858 -999 9 11 102840 80
2006-06-07 04:57 51°18.358 2°40.561 -999 11 11 102840 80
2006-06-07 04:58 51°18.482 2°40.292 -999 11 11 102830 80
2006-06-07 04:59 51°18.618 2°39.995 -999 15 11 102830 80
2006-06-07 05:00 51°18.753 2°39.706 -999 10 10.9 102830 80
2006-06-07 05:01 51°18.881 2°39.432 -999 10 10.9 102830 80
2006-06-07 05:02 51°19.019 2°39.138 -999 9 10.9 102830 80
2006-06-07 05:03 51°19.149 2°38.853 -999 8 10.9 102830 80
2006-06-07 05:04 51°19.274 2°38.569 -999 9 10.9 102840 80
2006-06-07 05:05 51°19.4 2°38.286 -999 7 10.8 102840 80
2006-06-07 05:06 51°19.525 2°38.003 -999 7 10.8 102840 80
2006-06-07 05:07 51°19.659 2°37.731 -999 4 10.8 102830 80
2006-06-07 05:08 51°19.786 2°37.468 -999 5 10.8 102840 80
2006-06-07 05:09 51°19.876 2°37.279 -999 5 10.8 102840 80
2006-06-07 05:10 51°19.926 2°37.147 -999 3 10.8 102840 80
2006-06-07 05:11 51°19.961 2°37.057 -999 347 10.8 102850 80
2006-06-07 05:12 51°19.981 2°37.013 -999 341 10.8 102850 80
2006-06-07 05:13 51°19.99 2°36.984 -999 334 10.8 102850 80
2006-06-07 05:14 51°19.996 2°36.961 -999 333 10.8 102850 80
2006-06-07 05:15 51°19.998 2°36.941 -999 327 10.8 102850 80
2006-06-07 05:16 51°19.997 2°36.922 -999 324 10.8 102850 80
2006-06-07 05:17 51°19.995 2°36.902 -999 324 10.8 102850 80
2006-06-07 05:18 51°19.991 2°36.885 -999 330 10.8 102850 80
2006-06-07 05:19 51°19.986 2°36.868 -999 321 10.8 102850 80
2006-06-07 05:20 51°19.98 2°36.852 -999 289 10.9 102850 80
2006-06-07 05:21 51°19.976 2°36.836 -999 302 10.9 102850 80
2006-06-07 05:22 51°19.986 2°36.844 -999 290 10.9 102850 80
2006-06-07 05:23 51°19.982 2°36.89 -999 277 10.9 102850 80
2006-06-07 05:24 51°19.971 2°36.967 -999 319 11 102850 80
2006-06-07 05:25 51°19.973 2°37.043 -999 340 11 102850 80
2006-06-07 05:26 51°19.965 2°37.046 -999 266 11 102850 80
2006-06-07 05:27 51°19.952 2°37.025 -999 249 11 102840 80
2006-06-07 05:28 51°19.941 2°37.01 -999 284 11.1 102840 80
2006-06-07 05:29 51°19.937 2°37.01 -999 316 11.1 102840 80
2006-06-07 05:30 51°19.939 2°37.015 -999 339 11.1 102830 80
2006-06-07 05:31 51°19.941 2°37.018 -999 353 11 102840 80
2006-06-07 05:32 51°19.941 2°37.017 -999 356 11 102840 79
2006-06-07 05:33 51°19.939 2°37.015 -999 1 11 102830 79
2006-06-07 05:34 51°19.939 2°37.012 -999 4 11 102830 79
2006-06-07 05:35 51°19.939 2°37.011 -999 13 10.9 102830 79
2006-06-07 05:36 51°19.94 2°37.013 -999 13 10.9 102830 79
2006-06-07 05:37 51°19.942 2°37.014 -999 13 10.9 102830 79
2006-06-07 05:38 51°19.942 2°37.015 -999 10 10.9 102830 79
2006-06-07 05:39 51°19.941 2°37.014 -999 342 10.9 102830 80
2006-06-07 05:40 51°19.939 2°37.013 -999 320 11 102830 80
2006-06-07 05:41 51°19.939 2°37.013 -999 305 11 102830 80
2006-06-07 05:42 51°19.938 2°37.015 -999 291 11 102830 80
2006-06-07 05:43 51°19.939 2°37.017 -999 289 11.1 102830 79
2006-06-07 05:44 51°19.939 2°37.016 -999 289 11.1 102840 79
2006-06-07 05:45 51°19.939 2°37.015 -999 289 11.2 102840 79
2006-06-07 05:46 51°19.939 2°37.014 -999 291 11.2 102830 79
2006-06-07 05:47 51°19.939 2°37.014 -999 291 11.2 102830 79
2006-06-07 05:48 51°19.94 2°37.014 -999 291 11.3 102830 79
2006-06-07 05:49 51°19.941 2°37.015 -999 290 11.3 102830 79
2006-06-07 05:50 51°19.941 2°37.015 -999 290 11.3 102840 79
2006-06-07 05:51 51°19.941 2°37.015 -999 290 11.3 102830 79
2006-06-07 05:52 51°19.941 2°37.015 -999 287 11.3 102830 78
2006-06-07 05:53 51°19.941 2°37.014 -999 287 11.3 102830 78
2006-06-07 05:54 51°19.941 2°37.014 -999 288 11.3 102830 78
2006-06-07 05:55 51°19.94 2°37.015 -999 288 11.4 102820 78
2006-06-07 05:56 51°19.94 2°37.015 -999 288 11.4 102820 78
2006-06-07 05:57 51°19.94 2°37.015 -999 289 11.3 102820 77
2006-06-07 05:58 51°19.941 2°37.015 -999 289 11.3 102820 77
2006-06-07 05:59 51°19.941 2°37.015 -999 290 11.2 102820 77
2006-06-07 06:00 51°19.941 2°37.015 -999 303 11.2 102820 77
2006-06-07 06:01 51°19.942 2°37.016 -999 121 11.2 102820 78
2006-06-07 06:02 51°19.941 2°37.017 -999 100 11.2 102820 78
2006-06-07 06:03 51°19.939 2°37.018 -999 96 11.2 102820 78
2006-06-07 06:04 51°19.938 2°37.019 -999 70 11.3 102810 78
2006-06-07 06:05 51°19.938 2°37.02 -999 70 11.2 102810 78
2006-06-07 06:06 51°19.938 2°37.021 -999 78 11.2 102820 78
2006-06-07 06:07 51°19.939 2°37.022 -999 56 11.2 102820 78
2006-06-07 06:08 51°19.939 2°37.022 -999 48 11.2 102820 78
2006-06-07 06:09 51°19.939 2°37.022 -999 47 11.1 102820 78
2006-06-07 06:10 51°19.938 2°37.021 -999 20 11.1 102810 78
2006-06-07 06:11 51°19.938 2°37.021 -999 20 11 102820 79
2006-06-07 06:12 51°19.937 2°37.022 -999 20 11 102820 79
2006-06-07 06:13 51°19.937 2°37.022 -999 21 11 102820 79
2006-06-07 06:14 51°19.938 2°37.022 -999 49 11 102810 79
2006-06-07 06:15 51°19.937 2°37.022 -999 77 11 102820 79
2006-06-07 06:16 51°19.937 2°37.021 -999 77 11.1 102820 79
2006-06-07 06:17 51°19.937 2°37.021 -999 77 11.1 102820 79
2006-06-07 06:18 51°19.938 2°37.022 -999 77 11.1 102820 79
2006-06-07 06:19 51°19.938 2°37.023 -999 77 11.1 102820 79
2006-06-07 06:20 51°19.938 2°37.023 -999 77 11.1 102810 79
2006-06-07 06:21 51°19.938 2°37.024 -999 88 11.1 102810 79
2006-06-07 06:22 51°19.938 2°37.025 -999 96 11.2 102820 79
2006-06-07 06:23 51°19.938 2°37.025 -999 96 11.2 102810 79
2006-06-07 06:24 51°19.938 2°37.027 -999 99 11.3 102810 79
2006-06-07 06:25 51°19.938 2°37.028 -999 100 11.4 102820 79
2006-06-07 06:26 51°19.938 2°37.029 -999 118 11.4 102810 79
2006-06-07 06:27 51°19.938 2°37.029 -999 115 11.5 102810 79
2006-06-07 06:28 51°19.938 2°37.029 -999 111 11.5 102810 78
2006-06-07 06:29 51°19.938 2°37.029 -999 126 11.4 102810 78
2006-06-07 06:30 51°19.937 2°37.028 -999 129 11.4 102810 78
2006-06-07 06:31 51°19.937 2°37.029 -999 141 11.4 102800 78
2006-06-07 06:32 51°19.937 2°37.029 -999 141 11.3 102810 78
2006-06-07 06:33 51°19.937 2°37.029 -999 137 11.3 102810 78
2006-06-07 06:34 51°19.936 2°37.029 -999 142 11.3 102810 78
2006-06-07 06:35 51°19.936 2°37.029 -999 142 11.3 102810 78
2006-06-07 06:36 51°19.936 2°37.03 -999 142 11.3 102810 78
2006-06-07 06:37 51°19.937 2°37.031 -999 142 11.3 102820 78
2006-06-07 06:38 51°19.938 2°37.033 -999 143 11.3 102820 78
2006-06-07 06:39 51°19.939 2°37.035 -999 144 11.3 102820 78
2006-06-07 06:40 51°19.939 2°37.036 -999 144 11.3 102810 78
2006-06-07 06:41 51°19.939 2°37.037 -999 161 11.3 102810 78
2006-06-07 06:42 51°19.939 2°37.038 -999 208 11.4 102810 78
2006-06-07 06:43 51°19.938 2°37.038 -999 186 11.3 102810 78
2006-06-07 06:44 51°19.938 2°37.039 -999 169 11.3 102820 78
2006-06-07 06:45 51°19.938 2°37.038 -999 169 11.4 102810 78
2006-06-07 06:46 51°19.938 2°37.038 -999 164 11.4 102810 78
2006-06-07 06:47 51°19.938 2°37.038 -999 165 11.3 102810 78
2006-06-07 06:48 51°19.94 2°37.04 -999 168 11.3 102810 78
2006-06-07 06:49 51°19.941 2°37.042 -999 200 11.3 102810 78
2006-06-07 06:50 51°19.941 2°37.043 -999 207 11.3 102810 78
2006-06-07 06:51 51°19.941 2°37.045 -999 213 11.3 102810 78
2006-06-07 06:52 51°19.942 2°37.047 -999 209 11.3 102810 78
2006-06-07 06:53 51°19.944 2°37.049 -999 214 11.3 102810 78
2006-06-07 06:54 51°19.944 2°37.051 -999 224 11.3 102810 78
2006-06-07 06:55 51°19.944 2°37.052 -999 216 11.3 102810 79
2006-06-07 06:56 51°19.946 2°37.053 -999 230 11.3 102810 79
2006-06-07 06:57 51°19.946 2°37.054 -999 228 11.3 102810 79
2006-06-07 06:58 51°19.946 2°37.055 -999 231 11.3 102810 79
2006-06-07 06:59 51°19.946 2°37.055 -999 288 11.4 102810 79
2006-06-07 07:00 51°19.948 2°37.051 -999 266 11.4 102820 80
2006-06-07 07:01 51°19.947 2°37.052 -999 277 11.5 102820 80
2006-06-07 07:02 51°19.949 2°37.05 -999 275 11.5 102820 79
2006-06-07 07:03 51°19.949 2°37.052 -999 266 11.5 102810 79
2006-06-07 07:04 51°19.949 2°37.053 -999 264 11.5 102820 79
2006-06-07 07:05 51°19.949 2°37.054 -999 264 11.5 102820 79
2006-06-07 07:06 51°19.949 2°37.054 -999 274 11.5 102820 79
2006-06-07 07:07 51°19.949 2°37.054 -999 294 11.5 102820 78
2006-06-07 07:08 51°19.95 2°37.054 -999 307 11.5 102830 79
2006-06-07 07:09 51°19.95 2°37.055 -999 302 11.6 102830 79
2006-06-07 07:10 51°19.95 2°37.055 -999 299 11.6 102830 79
2006-06-07 07:11 51°19.949 2°37.056 -999 294 11.7 102820 79
2006-06-07 07:12 51°19.949 2°37.056 -999 312 11.8 102830 79
2006-06-07 07:13 51°19.949 2°37.056 -999 314 11.9 102830 79
2006-06-07 07:14 51°19.949 2°37.057 -999 284 11.9 102830 79
2006-06-07 07:15 51°19.95 2°37.057 -999 283 11.9 102820 78
2006-06-07 07:16 51°19.95 2°37.057 -999 277 11.9 102820 78
2006-06-07 07:17 51°19.95 2°37.056 -999 280 11.9 102820 78
2006-06-07 07:18 51°19.95 2°37.056 -999 292 11.9 102820 78
2006-06-07 07:19 51°19.95 2°37.056 -999 315 12 102820 78
2006-06-07 07:20 51°19.951 2°37.057 -999 312 12 102820 77
2006-06-07 07:21 51°19.952 2°37.057 -999 306 12.1 102820 77
2006-06-07 07:22 51°19.952 2°37.057 -999 312 12.1 102810 77
2006-06-07 07:23 51°19.953 2°37.058 -999 303 12.2 102810 77
2006-06-07 07:24 51°19.954 2°37.057 -999 309 12.3 102810 77
2006-06-07 07:25 51°19.954 2°37.057 -999 300 12.3 102810 76
2006-06-07 07:26 51°19.955 2°37.058 -999 287 12.4 102810 77
2006-06-07 07:27 51°19.956 2°37.058 -999 296 12.5 102810 76
2006-06-07 07:28 51°19.956 2°37.059 -999 307 12.6 102810 75
2006-06-07 07:29 51°19.955 2°37.061 -999 300 12.6 102800 75
2006-06-07 07:30 51°19.954 2°37.062 -999 302 12.6 102800 74
2006-06-07 07:31 51°19.954 2°37.062 -999 291 12.6 102800 74
2006-06-07 07:32 51°19.954 2°37.063 -999 296 12.6 102800 74
2006-06-07 07:33 51°19.954 2°37.062 -999 297 12.5 102800 74
2006-06-07 07:34 51°19.954 2°37.062 -999 303 12.5 102800 74
2006-06-07 07:35 51°19.954 2°37.061 -999 296 12.4 102800 74
2006-06-07 07:36 51°19.954 2°37.061 -999 288 12.4 102800 74
2006-06-07 07:37 51°19.954 2°37.062 -999 299 12.3 102800 74
2006-06-07 07:38 51°19.954 2°37.063 -999 298 12.4 102800 74
2006-06-07 07:39 51°19.953 2°37.065 -999 304 12.3 102810 74
2006-06-07 07:40 51°19.953 2°37.065 -999 295 12.3 102800 74
2006-06-07 07:41 51°19.953 2°37.065 -999 299 12.3 102800 75
2006-06-07 07:42 51°19.954 2°37.065 -999 291 12.4 102800 75
2006-06-07 07:43 51°19.955 2°37.064 -999 294 12.4 102790 75
2006-06-07 07:44 51°19.955 2°37.065 -999 292 12.4 102800 75
2006-06-07 07:45 51°19.956 2°37.066 -999 283 12.4 102790 75
2006-06-07 07:46 51°19.956 2°37.068 -999 294 12.4 102800 75
2006-06-07 07:47 51°19.956 2°37.068 -999 288 12.4 102790 75
2006-06-07 07:48 51°19.957 2°37.068 -999 284 12.3 102790 75
2006-06-07 07:49 51°19.956 2°37.069 -999 294 12.3 102790 75
2006-06-07 07:50 51°19.955 2°37.071 -999 287 12.3 102790 75
2006-06-07 07:51 51°19.955 2°37.071 -999 280 12.2 102790 75
2006-06-07 07:52 51°19.955 2°37.072 -999 291 12.2 102800 75
2006-06-07 07:53 51°19.956 2°37.071 -999 289 12.3 102790 75
2006-06-07 07:54 51°19.956 2°37.071 -999 289 12.3 102790 75
2006-06-07 07:55 51°19.957 2°37.071 -999 296 12.4 102790 76
2006-06-07 07:56 51°19.957 2°37.071 -999 293 12.4 102790 76
2006-06-07 07:57 51°19.958 2°37.072 -999 308 12.5 102790 75
2006-06-07 07:58 51°19.958 2°37.071 -999 292 12.6 102790 76
2006-06-07 07:59 51°19.958 2°37.071 -999 293 12.6 102790 75
2006-06-07 08:00 51°19.958 2°37.071 -999 298 12.7 102780 75
2006-06-07 08:01 51°19.959 2°37.07 -999 284 12.7 102790 75
2006-06-07 08:02 51°19.959 2°37.071 -999 290 12.7 102790 74
2006-06-07 08:03 51°19.958 2°37.072 -999 284 12.7 102790 74
2006-06-07 08:04 51°19.958 2°37.073 -999 271 12.7 102790 74
2006-06-07 08:05 51°19.957 2°37.074 -999 286 12.7 102790 74
2006-06-07 08:06 51°19.957 2°37.074 -999 293 12.8 102780 74
2006-06-07 08:07 51°19.957 2°37.074 -999 280 12.8 102780 74
2006-06-07 08:08 51°19.958 2°37.074 -999 280 12.8 102780 74
2006-06-07 08:09 51°19.958 2°37.075 -999 290 12.9 102780 74
2006-06-07 08:10 51°19.959 2°37.074 -999 291 12.9 102780 74
2006-06-07 08:11 51°19.96 2°37.074 -999 293 12.9 102780 74
2006-06-07 08:12 51°19.961 2°37.075 -999 288 12.9 102780 73
2006-06-07 08:13 51°19.961 2°37.077 -999 282 12.8 102790 74
2006-06-07 08:14 51°19.962 2°37.077 -999 282 12.9 102780 74
2006-06-07 08:15 51°19.962 2°37.078 -999 289 12.9 102790 74
2006-06-07 08:16 51°19.961 2°37.078 -999 304 12.9 102780 74
2006-06-07 08:17 51°19.961 2°37.078 -999 293 12.9 102780 74
2006-06-07 08:18 51°19.961 2°37.079 -999 304 13 102780 74
2006-06-07 08:19 51°19.961 2°37.079 -999 293 12.9 102780 74
2006-06-07 08:20 51°19.961 2°37.08 -999 298 13 102790 73
2006-06-07 08:21 51°19.961 2°37.08 -999 292 13.1 102780 74
2006-06-07 08:22 51°19.961 2°37.08 -999 301 13.1 102790 73
2006-06-07 08:23 51°19.962 2°37.08 -999 301 13.1 102790 73
2006-06-07 08:24 51°19.962 2°37.08 -999 306 13.1 102790 73
2006-06-07 08:25 51°19.962 2°37.079 -999 299 13.1 102790 73
2006-06-07 08:26 51°19.963 2°37.079 -999 307 13.1 102790 72
2006-06-07 08:27 51°19.963 2°37.08 -999 306 13.1 102790 72
2006-06-07 08:28 51°19.964 2°37.08 -999 307 13.1 102800 72
2006-06-07 08:29 51°19.963 2°37.08 -999 319 13.1 102800 72
2006-06-07 08:30 51°19.963 2°37.08 -999 315 13.1 102800 72
2006-06-07 08:31 51°19.962 2°37.079 -999 313 13.1 102800 72
2006-06-07 08:32 51°19.962 2°37.08 -999 296 13.1 102800 72
2006-06-07 08:33 51°19.961 2°37.08 -999 298 13.2 102810 72
2006-06-07 08:34 51°19.962 2°37.081 -999 302 13.3 102800 72
2006-06-07 08:35 51°19.962 2°37.081 -999 293 13.3 102810 73
2006-06-07 08:36 51°19.962 2°37.081 -999 290 13.3 102800 72
2006-06-07 08:37 51°19.963 2°37.08 -999 290 13.4 102800 72
2006-06-07 08:38 51°19.963 2°37.08 -999 290 13.5 102810 72
2006-06-07 08:39 51°19.963 2°37.081 -999 294 13.6 102800 72
2006-06-07 08:40 51°19.963 2°37.08 -999 300 13.6 102800 72
2006-06-07 08:41 51°19.963 2°37.081 -999 303 13.7 102800 71
2006-06-07 08:42 51°19.963 2°37.081 -999 307 13.8 102800 71
2006-06-07 08:43 51°19.963 2°37.081 -999 310 13.8 102800 71
2006-06-07 08:44 51°19.963 2°37.081 -999 317 13.9 102810 70
2006-06-07 08:45 51°19.962 2°37.081 -999 302 13.9 102800 70
2006-06-07 08:46 51°19.962 2°37.081 -999 297 14 102810 70
2006-06-07 08:47 51°19.962 2°37.081 -999 305 14 102810 70
2006-06-07 08:48 51°19.961 2°37.081 -999 319 14 102800 69
2006-06-07 08:49 51°19.961 2°37.082 -999 331 14 102810 69
2006-06-07 08:50 51°19.962 2°37.081 -999 323 13.9 102810 68
2006-06-07 08:51 51°19.962 2°37.081 -999 350 13.7 102810 69
2006-06-07 08:52 51°19.963 2°37.081 -999 346 13.6 102820 69
2006-06-07 08:53 51°19.964 2°37.081 -999 339 13.5 102820 70
2006-06-07 08:54 51°19.964 2°37.081 -999 343 13.5 102820 70
2006-06-07 08:55 51°19.965 2°37.082 -999 343 13.4 102820 71
2006-06-07 08:56 51°19.965 2°37.082 -999 332 13.4 102820 71
2006-06-07 08:57 51°19.965 2°37.082 -999 332 13.3 102820 70
2006-06-07 08:58 51°19.966 2°37.082 -999 356 13.3 102820 71
2006-06-07 08:59 51°19.966 2°37.083 -999 338 13.3 102820 71
2006-06-07 09:00 51°19.966 2°37.084 -999 339 13.3 102820 71
2006-06-07 09:01 51°19.966 2°37.086 -999 338 13.3 102820 71
2006-06-07 09:02 51°19.966 2°37.086 -999 345 13.4 102820 71
2006-06-07 09:03 51°19.966 2°37.086 -999 356 13.4 102820 70
2006-06-07 09:04 51°19.966 2°37.086 -999 5 13.3 102820 70
2006-06-07 09:05 51°19.966 2°37.087 -999 348 13.2 102830 71
2006-06-07 09:06 51°19.966 2°37.087 -999 351 13.2 102830 71
2006-06-07 09:07 51°19.966 2°37.087 -999 356 13.2 102830 72
2006-06-07 09:08 51°19.965 2°37.088 -999 6 13.2 102840 72
2006-06-07 09:09 51°19.965 2°37.089 -999 21 13.2 102830 72
2006-06-07 09:10 51°19.965 2°37.089 -999 15 13 102830 71
2006-06-07 09:11 51°19.965 2°37.089 -999 13 12.9 102830 72
2006-06-07 09:12 51°19.966 2°37.089 -999 23 12.9 102830 73
2006-06-07 09:13 51°19.965 2°37.089 -999 16 12.8 102830 73
2006-06-07 09:14 51°19.965 2°37.089 -999 14 12.8 102830 73
2006-06-07 09:15 51°19.965 2°37.089 -999 6 12.8 102830 73
2006-06-07 09:16 51°19.965 2°37.089 -999 19 12.8 102830 73
2006-06-07 09:17 51°19.965 2°37.09 -999 26 12.9 102840 73
2006-06-07 09:18 51°19.965 2°37.09 -999 26 12.8 102830 73
2006-06-07 09:19 51°19.965 2°37.09 -999 23 12.7 102830 74
2006-06-07 09:20 51°19.964 2°37.09 -999 28 12.7 102830 74
2006-06-07 09:21 51°19.964 2°37.09 -999 16 12.6 102830 74
2006-06-07 09:22 51°19.964 2°37.09 -999 12 12.6 102830 74
2006-06-07 09:23 51°19.965 2°37.09 -999 20 12.6 102830 74
2006-06-07 09:24 51°19.965 2°37.091 -999 22 12.7 102830 75
2006-06-07 09:25 51°19.965 2°37.091 -999 10 12.7 102830 75
2006-06-07 09:26 51°19.965 2°37.091 -999 17 12.8 102830 74
2006-06-07 09:27 51°19.965 2°37.091 -999 15 12.8 102820 74
2006-06-07 09:28 51°19.965 2°37.091 -999 21 12.8 102830 75
2006-06-07 09:29 51°19.965 2°37.091 -999 24 12.9 102830 74
2006-06-07 09:30 51°19.965 2°37.091 -999 12 12.9 102820 74
2006-06-07 09:31 51°19.965 2°37.091 -999 3 12.9 102830 74
2006-06-07 09:32 51°19.965 2°37.091 -999 36 12.9 102820 74
2006-06-07 09:33 51°19.965 2°37.092 -999 20 12.9 102820 74
2006-06-07 09:34 51°19.965 2°37.092 -999 13 12.9 102820 73
2006-06-07 09:35 51°19.965 2°37.092 -999 3 12.9 102830 73
2006-06-07 09:36 51°19.964 2°37.092 -999 3 12.9 102820 73
2006-06-07 09:37 51°19.964 2°37.092 -999 3 13 102820 73
2006-06-07 09:38 51°19.964 2°37.092 -999 355 13.2 102820 74
2006-06-07 09:39 51°19.964 2°37.092 -999 14 13.2 102820 73
2006-06-07 09:40 51°19.964 2°37.092 -999 357 13.3 102820 73
2006-06-07 09:41 51°19.965 2°37.091 -999 1 13.3 102810 72
2006-06-07 09:42 51°19.965 2°37.092 -999 4 13.3 102820 71
2006-06-07 09:43 51°19.965 2°37.092 -999 15 13.2 102820 72
2006-06-07 09:44 51°19.964 2°37.092 -999 24 13.4 102820 72
2006-06-07 09:45 51°19.964 2°37.092 -999 14 13.4 102820 71
2006-06-07 09:46 51°19.964 2°37.092 -999 16 13.4 102810 71
2006-06-07 09:47 51°19.965 2°37.091 -999 1 13.4 102820 71
2006-06-07 09:48 51°19.965 2°37.091 -999 3 13.4 102820 71
2006-06-07 09:49 51°19.966 2°37.091 -999 9 13.4 102810 71
2006-06-07 09:50 51°19.966 2°37.091 -999 17 13.4 102810 71
2006-06-07 09:51 51°19.965 2°37.091 -999 16 13.5 102810 71
2006-06-07 09:52 51°19.965 2°37.09 -999 3 13.4 102810 70
2006-06-07 09:53 51°19.964 2°37.09 -999 1 13.4 102810 71
2006-06-07 09:54 51°19.964 2°37.09 -999 356 13.4 102810 71
2006-06-07 09:55 51°19.965 2°37.09 -999 356 13.4 102810 71
2006-06-07 09:56 51°19.965 2°37.091 -999 3 13.4 102820 71
2006-06-07 09:57 51°19.965 2°37.089 -999 345 13.3 102810 71
2006-06-07 09:58 51°19.965 2°37.09 -999 350 13.3 102810 71
2006-06-07 09:59 51°19.964 2°37.09 -999 8 13.4 102810 71
2006-06-07 10:00 51°19.964 2°37.09 -999 351 13.3 102810 71
2006-06-07 10:01 51°19.964 2°37.089 -999 350 13.3 102810 72
2006-06-07 10:02 51°19.965 2°37.089 -999 10 13.3 102810 72
2006-06-07 10:03 51°19.965 2°37.089 -999 15 13.3 102810 72
2006-06-07 10:04 51°19.965 2°37.089 -999 2 13.2 102810 71
2006-06-07 10:05 51°19.965 2°37.088 -999 15 13.3 102810 72
2006-06-07 10:06 51°19.965 2°37.09 -999 14 13.2 102810 71
2006-06-07 10:07 51°19.964 2°37.09 -999 10 13.3 102810 72
2006-06-07 10:08 51°19.964 2°37.088 -999 12 13.3 102810 71
2006-06-07 10:09 51°19.964 2°37.088 -999 3 13.3 102800 72
2006-06-07 10:10 51°19.964 2°37.089 -999 1 13.3 102810 72
2006-06-07 10:11 51°19.965 2°37.088 -999 1 13.3 102800 72
2006-06-07 10:12 51°19.966 2°37.089 -999 2 13.3 102810 72
2006-06-07 10:13 51°19.966 2°37.089 -999 3 13.3 102800 72
2006-06-07 10:14 51°19.965 2°37.089 -999 16 13.3 102800 71
2006-06-07 10:15 51°19.965 2°37.089 -999 10 13.3 102800 71
2006-06-07 10:16 51°19.964 2°37.089 -999 13 13.3 102800 72
2006-06-07 10:17 51°19.964 2°37.089 -999 4 13.3 102810 71
2006-06-07 10:18 51°19.963 2°37.089 -999 14 13.3 102810 71
2006-06-07 10:19 51°19.964 2°37.089 -999 359 13.4 102810 71
2006-06-07 10:20 51°19.964 2°37.089 -999 2 13.5 102810 72
2006-06-07 10:21 51°19.965 2°37.089 -999 8 13.6 102810 71
2006-06-07 10:22 51°19.965 2°37.089 -999 2 13.5 102810 71
2006-06-07 10:23 51°19.965 2°37.089 -999 15 13.5 102810 71
2006-06-07 10:24 51°19.967 2°37.089 -999 16 13.5 102820 71
2006-06-07 10:25 51°19.965 2°37.089 -999 13 13.4 102810 71
2006-06-07 10:26 51°19.964 2°37.089 -999 6 13.4 102810 71
2006-06-07 10:27 51°19.964 2°37.089 -999 5 13.4 102820 71
2006-06-07 10:28 51°19.965 2°37.089 -999 356 13.5 102810 71
2006-06-07 10:29 51°19.965 2°37.088 -999 353 13.5 102810 71
2006-06-07 10:30 51°19.966 2°37.088 -999 359 13.6 102820 71
2006-06-07 10:31 51°19.966 2°37.088 -999 10 13.5 102810 71
2006-06-07 10:32 51°19.966 2°37.088 -999 1 13.5 102810 71
2006-06-07 10:33 51°19.965 2°37.088 -999 19 13.5 102810 71
2006-06-07 10:34 51°19.965 2°37.089 -999 20 13.5 102810 71
2006-06-07 10:35 51°19.965 2°37.089 -999 12 13.4 102810 71
2006-06-07 10:36 51°19.964 2°37.088 -999 15 13.3 102810 71
2006-06-07 10:37 51°19.965 2°37.088 -999 13 13.3 102810 72
2006-06-07 10:38 51°19.965 2°37.09 -999 8 13.3 102810 72
2006-06-07 10:39 51°19.964 2°37.09 -999 8 13.4 102810 72
2006-06-07 10:40 51°19.965 2°37.088 -999 22 13.5 102810 72
2006-06-07 10:41 51°19.966 2°37.087 -999 26 13.6 102810 72
2006-06-07 10:42 51°19.967 2°37.088 -999 29 13.4 102820 71
2006-06-07 10:43 51°19.967 2°37.089 -999 25 13.2 102820 71
2006-06-07 10:44 51°19.966 2°37.088 -999 28 13.1 102820 72
2006-06-07 10:45 51°19.966 2°37.088 -999 22 13.1 102820 73
2006-06-07 10:46 51°19.966 2°37.087 -999 24 13.1 102820 73
2006-06-07 10:47 51°19.967 2°37.086 -999 16 13.1 102820 73
2006-06-07 10:48 51°19.969 2°37.086 -999 17 13.2 102820 73
2006-06-07 10:49 51°19.97 2°37.084 -999 8 13.2 102820 73
2006-06-07 10:50 51°19.97 2°37.083 -999 15 13.3 102810 73
2006-06-07 10:51 51°19.97 2°37.081 -999 29 13.3 102810 73
2006-06-07 10:52 51°19.971 2°37.081 -999 19 13.4 102810 73
2006-06-07 10:53 51°19.972 2°37.081 -999 24 13.3 102820 72
2006-06-07 10:54 51°19.971 2°37.083 -999 30 13.2 102810 72
2006-06-07 10:55 51°19.969 2°37.085 -999 35 13.1 102810 72
2006-06-07 10:56 51°19.968 2°37.086 -999 24 12.9 102800 73
2006-06-07 10:57 51°19.968 2°37.085 -999 17 13 102810 74
2006-06-07 10:58 51°19.968 2°37.083 -999 21 13.1 102810 75
2006-06-07 10:59 51°19.97 2°37.081 -999 358 13.2 102810 74
2006-06-07 11:00 51°19.971 2°37.081 -999 17 13.2 102800 74
2006-06-07 11:01 51°19.971 2°37.081 -999 11 13.3 102800 73
2006-06-07 11:02 51°19.971 2°37.081 -999 24 13.3 102800 73
2006-06-07 11:03 51°19.971 2°37.081 -999 25 13.3 102810 73
2006-06-07 11:04 51°19.97 2°37.082 -999 19 13.4 102810 73
2006-06-07 11:05 51°19.97 2°37.083 -999 25 13.4 102800 73
2006-06-07 11:06 51°19.97 2°37.082 -999 5 13.4 102810 73
2006-06-07 11:07 51°19.97 2°37.082 -999 10 13.5 102800 73
2006-06-07 11:08 51°19.97 2°37.082 -999 13 13.6 102800 73
2006-06-07 11:09 51°19.97 2°37.082 -999 23 13.7 102800 73
2006-06-07 11:10 51°19.971 2°37.081 -999 20 13.7 102800 72
2006-06-07 11:11 51°19.971 2°37.081 -999 16 13.6 102810 72
2006-06-07 11:12 51°19.972 2°37.081 -999 30 13.6 102810 72
2006-06-07 11:13 51°19.972 2°37.082 -999 30 13.5 102810 72
2006-06-07 11:14 51°19.971 2°37.082 -999 43 13.6 102810 73
2006-06-07 11:15 51°19.971 2°37.083 -999 33 13.5 102810 72
2006-06-07 11:16 51°19.97 2°37.083 -999 31 13.3 102810 72
2006-06-07 11:17 51°19.97 2°37.083 -999 29 13.2 102810 73
2006-06-07 11:18 51°19.97 2°37.083 -999 36 13.2 102810 74
2006-06-07 11:19 51°19.97 2°37.084 -999 27 13.2 102810 74
2006-06-07 11:20 51°19.969 2°37.085 -999 28 13.1 102800 74
2006-06-07 11:21 51°19.969 2°37.084 -999 29 13.1 102800 75
2006-06-07 11:22 51°19.969 2°37.083 -999 38 13.1 102810 75
2006-06-07 11:23 51°19.97 2°37.082 -999 35 13 102800 75
2006-06-07 11:24 51°19.969 2°37.082 -999 42 12.9 102810 75
2006-06-07 11:25 51°19.969 2°37.082 -999 33 12.8 102800 76
2006-06-07 11:26 51°19.968 2°37.083 -999 45 12.8 102800 77
2006-06-07 11:27 51°19.969 2°37.083 -999 30 12.7 102800 78
2006-06-07 11:28 51°19.97 2°37.083 -999 33 12.8 102800 78
2006-06-07 11:29 51°19.969 2°37.083 -999 40 12.8 102800 78
2006-06-07 11:30 51°19.969 2°37.083 -999 40 12.8 102800 78
2006-06-07 11:31 51°19.968 2°37.083 -999 34 12.9 102800 78
2006-06-07 11:32 51°19.969 2°37.082 -999 37 12.9 102800 78
2006-06-07 11:33 51°19.97 2°37.081 -999 37 12.9 102800 78
2006-06-07 11:34 51°19.97 2°37.081 -999 21 13 102800 79
2006-06-07 11:35 51°19.971 2°37.08 -999 32 13.2 102800 79
2006-06-07 11:36 51°19.97 2°37.08 -999 34 13.2 102800 78
2006-06-07 11:37 51°19.97 2°37.081 -999 40 13.2 102800 77
2006-06-07 11:38 51°19.97 2°37.08 -999 37 13.1 102800 77
2006-06-07 11:39 51°19.97 2°37.081 -999 32 13.1 102800 77
2006-06-07 11:40 51°19.97 2°37.081 -999 44 13.2 102800 77
2006-06-07 11:41 51°19.971 2°37.081 -999 43 13.1 102800 77
2006-06-07 11:42 51°19.97 2°37.08 -999 41 13 102800 77
2006-06-07 11:43 51°19.97 2°37.079 -999 50 13 102800 77
2006-06-07 11:44 51°19.97 2°37.079 -999 54 12.9 102800 78
2006-06-07 11:45 51°19.97 2°37.078 -999 53 12.9 102800 78
2006-06-07 11:46 51°19.97 2°37.079 -999 53 12.8 102800 78
2006-06-07 11:47 51°19.97 2°37.08 -999 61 12.8 102800 78
2006-06-07 11:48 51°19.97 2°37.081 -999 64 12.8 102800 79
2006-06-07 11:49 51°19.969 2°37.081 -999 63 12.7 102800 79
2006-06-07 11:50 51°19.969 2°37.081 -999 57 12.7 102800 79
2006-06-07 11:51 51°19.969 2°37.08 -999 57 12.7 102800 79
2006-06-07 11:52 51°19.969 2°37.079 -999 58 12.7 102800 79
2006-06-07 11:53 51°19.968 2°37.079 -999 59 12.7 102800 79
2006-06-07 11:54 51°19.967 2°37.079 -999 64 12.7 102800 79
2006-06-07 11:55 51°19.968 2°37.079 -999 63 12.7 102800 79
2006-06-07 11:56 51°19.968 2°37.079 -999 59 12.7 102800 79
2006-06-07 11:57 51°19.969 2°37.079 -999 56 12.7 102800 79
2006-06-07 11:58 51°19.968 2°37.08 -999 59 12.7 102800 79
2006-06-07 11:59 51°19.969 2°37.081 -999 63 12.8 102800 79
2006-06-07 12:00 51°19.969 2°37.081 -999 64 12.8 102800 78
2006-06-07 12:01 51°19.968 2°37.08 -999 59 12.8 102800 79
2006-06-07 12:02 51°19.968 2°37.079 -999 54 12.8 102800 79
2006-06-07 12:03 51°19.968 2°37.078 -999 46 12.8 102800 79
2006-06-07 12:04 51°19.969 2°37.077 -999 59 12.9 102800 79
2006-06-07 12:05 51°19.969 2°37.077 -999 55 12.9 102800 79
2006-06-07 12:06 51°19.97 2°37.077 -999 55 12.8 102790 78
2006-06-07 12:07 51°19.97 2°37.077 -999 56 12.8 102790 77
2006-06-07 12:08 51°19.97 2°37.077 -999 61 12.9 102790 78
2006-06-07 12:09 51°19.97 2°37.077 -999 64 12.9 102790 78
2006-06-07 12:10 51°19.97 2°37.077 -999 56 12.9 102790 78
2006-06-07 12:11 51°19.97 2°37.076 -999 64 12.9 102790 77
2006-06-07 12:12 51°19.97 2°37.076 -999 63 13 102790 77
2006-06-07 12:13 51°19.97 2°37.076 -999 63 13 102790 77
2006-06-07 12:14 51°19.969 2°37.075 -999 64 13 102790 77
2006-06-07 12:15 51°19.969 2°37.074 -999 60 13 102790 78
2006-06-07 12:16 51°19.97 2°37.073 -999 54 13 102790 78
2006-06-07 12:17 51°19.97 2°37.073 -999 63 13 102790 77
2006-06-07 12:18 51°19.97 2°37.074 -999 62 13 102790 77
2006-06-07 12:19 51°19.971 2°37.073 -999 63 13.1 102790 77
2006-06-07 12:20 51°19.971 2°37.073 -999 65 13 102790 77
2006-06-07 12:21 51°19.971 2°37.073 -999 74 13.1 102790 77
2006-06-07 12:22 51°19.971 2°37.072 -999 76 13.1 102790 77
2006-06-07 12:23 51°19.97 2°37.072 -999 79 13.1 102790 77
2006-06-07 12:24 51°19.969 2°37.071 -999 73 13.1 102790 77
2006-06-07 12:25 51°19.968 2°37.07 -999 75 13.1 102790 77
2006-06-07 12:26 51°19.968 2°37.069 -999 75 13.2 102790 77
2006-06-07 12:27 51°19.967 2°37.069 -999 77 13.2 102790 76
2006-06-07 12:28 51°19.967 2°37.069 -999 80 13.2 102790 76
2006-06-07 12:29 51°19.967 2°37.07 -999 93 13.3 102790 76
2006-06-07 12:30 51°19.967 2°37.07 -999 93 13.4 102800 76
2006-06-07 12:31 51°19.968 2°37.07 -999 92 13.4 102800 76
2006-06-07 12:32 51°19.968 2°37.071 -999 85 13.4 102790 75
2006-06-07 12:33 51°19.968 2°37.071 -999 92 13.5 102790 75
2006-06-07 12:34 51°19.968 2°37.07 -999 91 13.5 102790 75
2006-06-07 12:35 51°19.968 2°37.068 -999 101 13.5 102790 75
2006-06-07 12:36 51°19.969 2°37.067 -999 101 13.6 102790 75
2006-06-07 12:37 51°19.969 2°37.066 -999 96 13.6 102790 75
2006-06-07 12:38 51°19.969 2°37.065 -999 96 13.6 102790 74
2006-06-07 12:39 51°19.969 2°37.066 -999 96 13.6 102790 74
2006-06-07 12:40 51°19.969 2°37.066 -999 105 13.7 102790 75
2006-06-07 12:41 51°19.968 2°37.065 -999 110 13.8 102790 74
2006-06-07 12:42 51°19.968 2°37.064 -999 115 13.9 102790 74
2006-06-07 12:43 51°19.967 2°37.063 -999 113 13.9 102790 73
2006-06-07 12:44 51°19.965 2°37.062 -999 113 14 102790 73
2006-06-07 12:45 51°19.964 2°37.06 -999 117 14 102790 73
2006-06-07 12:46 51°19.961 2°37.058 -999 104 14.1 102790 73
2006-06-07 12:47 51°19.953 2°37.048 -999 102 14.1 102790 71
2006-06-07 12:48 51°19.953 2°37.044 -999 116 14.1 102790 71
2006-06-07 12:49 51°19.962 2°37.053 -999 118 14.1 102790 70
2006-06-07 12:50 51°19.972 2°37.064 -999 121 14.1 102790 70
2006-06-07 12:51 51°19.981 2°37.071 -999 120 14.1 102790 70
2006-06-07 12:52 51°19.986 2°37.075 -999 120 14.2 102790 70
2006-06-07 12:53 51°19.99 2°37.076 -999 122 14.3 102790 70
2006-06-07 12:54 51°19.984 2°37.072 -999 98 14.4 102790 69
2006-06-07 12:55 51°19.913 2°37.124 -999 13 14.4 102790 69
2006-06-07 12:56 51°19.779 2°37.326 -999 4 14.4 102780 67
2006-06-07 12:57 51°19.661 2°37.59 -999 7 14.5 102780 67
2006-06-07 12:58 51°19.53 2°37.866 -999 5 14.5 102790 66
2006-06-07 12:59 51°19.403 2°38.131 -999 4 14.5 102780 66
2006-06-07 13:00 51°19.276 2°38.397 -999 4 14.5 102780 66
2006-06-07 13:01 51°19.16 2°38.678 -999 4 14.5 102770 67
2006-06-07 13:02 51°19.046 2°38.963 -999 358 14.5 102770 66
2006-06-07 13:03 51°18.932 2°39.248 -999 1 14.5 102770 66
2006-06-07 13:04 51°18.825 2°39.546 -999 352 14.5 102770 65
2006-06-07 13:05 51°18.714 2°39.84 -999 355 14.6 102770 64
2006-06-07 13:06 51°18.601 2°40.134 -999 2 14.7 102770 65
2006-06-07 13:07 51°18.484 2°40.415 -999 1 14.6 102770 63
2006-06-07 13:08 51°18.374 2°40.684 -999 4 14.6 102770 62
2006-06-07 13:09 51°18.251 2°40.968 -999 355 14.6 102770 62
2006-06-07 13:10 51°18.136 2°41.247 -999 359 14.6 102770 62
2006-06-07 13:11 51°18.019 2°41.526 -999 359 14.6 102770 62
2006-06-07 13:12 51°17.912 2°41.814 -999 356 14.7 102770 62
2006-06-07 13:13 51°17.804 2°42.101 -999 352 14.6 102760 60
2006-06-07 13:14 51°17.696 2°42.386 -999 354 14.6 102760 61
2006-06-07 13:15 51°17.586 2°42.67 -999 350 14.7 102770 63
2006-06-07 13:16 51°17.473 2°42.948 -999 348 14.6 102770 61
2006-06-07 13:17 51°17.363 2°43.221 -999 354 14.7 102760 61
2006-06-07 13:18 51°17.249 2°43.494 -999 351 14.8 102760 61
2006-06-07 13:19 51°17.139 2°43.776 -999 345 14.8 102760 62
2006-06-07 13:20 51°17.031 2°44.047 -999 351 14.8 102760 61
2006-06-07 13:21 51°16.914 2°44.334 -999 348 14.9 102760 61
2006-06-07 13:22 51°16.801 2°44.612 -999 347 14.9 102760 61
2006-06-07 13:23 51°16.69 2°44.891 -999 344 15 102760 61
2006-06-07 13:24 51°16.579 2°45.167 -999 344 15 102750 60
2006-06-07 13:25 51°16.469 2°45.447 -999 346 15 102760 60
2006-06-07 13:26 51°16.377 2°45.733 -999 345 15.1 102760 60
2006-06-07 13:27 51°16.271 2°46.032 -999 343 15 102760 59
2006-06-07 13:28 51°16.182 2°46.33 -999 342 15 102750 59
2006-06-07 13:29 51°16.133 2°46.655 -999 343 15 102750 59
2006-06-07 13:30 51°16.079 2°46.98 -999 342 15 102750 59
2006-06-07 13:31 51°16.025 2°47.305 -999 343 15 102750 58
2006-06-07 13:32 51°15.968 2°47.627 -999 342 15 102750 58
2006-06-07 13:33 51°15.917 2°47.946 -999 341 15 102750 60
2006-06-07 13:34 51°15.86 2°48.258 -999 342 14.9 102750 58
2006-06-07 13:35 51°15.805 2°48.568 -999 347 14.9 102750 56
2006-06-07 13:36 51°15.754 2°48.881 -999 340 14.9 102750 56
2006-06-07 13:37 51°15.696 2°49.191 -999 338 14.8 102750 56
2006-06-07 13:38 51°15.64 2°49.501 -999 338 14.8 102750 55
2006-06-07 13:39 51°15.585 2°49.807 -999 342 14.8 102750 53
2006-06-07 13:40 51°15.527 2°50.121 -999 342 14.8 102750 56
2006-06-07 13:41 51°15.477 2°50.435 -999 340 14.8 102760 57
2006-06-07 13:42 51°15.417 2°50.744 -999 340 14.7 102750 56
2006-06-07 13:43 51°15.362 2°51.054 -999 341 14.8 102760 54
2006-06-07 13:44 51°15.304 2°51.363 -999 340 14.8 102750 57
2006-06-07 13:45 51°15.246 2°51.671 -999 339 14.8 102750 55
2006-06-07 13:46 51°15.186 2°51.98 -999 340 14.9 102750 55
2006-06-07 13:47 51°15.129 2°52.284 -999 345 14.9 102750 54
2006-06-07 13:48 51°15.066 2°52.593 -999 343 14.9 102750 53
2006-06-07 13:49 51°15.008 2°52.899 -999 343 14.9 102750 52
2006-06-07 13:50 51°14.946 2°53.202 -999 338 14.9 102750 51
2006-06-07 13:51 51°14.882 2°53.505 -999 341 14.9 102750 48
2006-06-07 13:52 51°14.821 2°53.81 -999 345 14.9 102750 51
2006-06-07 13:53 51°14.755 2°54.11 -999 336 14.9 102750 51
2006-06-07 13:54 51°14.651 2°54.366 -999 340 14.9 102750 49
2006-06-07 13:55 51°14.544 2°54.618 -999 336 14.8 102760 48
2006-06-07 13:56 51°14.437 2°54.867 -999 340 14.8 102750 49
2006-06-07 13:57 51°14.339 2°55.112 -999 334 14.8 102750 50
2006-06-07 13:58 51°14.235 2°55.311 -999 337 14.9 102760 51
2006-06-07 13:59 51°14.128 2°55.431 -999 307 15 102760 53
2006-06-07 14:00 51°14.025 2°55.494 -999 285 15 102760 51
2006-06-07 14:01 51°13.921 2°55.572 -999 295 15.1 102760 46
2006-06-07 14:02 51°13.807 2°55.657 -999 292 15.3 102750 46
2006-06-07 14:03 51°13.719 2°55.754 -999 301 15.4 102760 43
2006-06-07 14:04 51°13.667 2°55.866 -999 287 15.6 102750 40
2006-06-07 14:05 51°13.637 2°55.959 -999 300 15.7 102750 38
2006-06-07 14:06 51°13.615 2°56.045 -999 262 15.9 102750 40
2006-06-07 14:07 51°13.604 2°56.092 -999 267 16 102750 40